Starlink 2322

operational
NORAD ID: 47791 Int'l Des: 2021-018 Owner: SPXS Country: US Constellation: starlink
LEOCIRCULARSTARLINK_TYPE

Über Starlink 2322

Beschreibung wird geladen...

Live-Position

3D-Globus wird geladen...

Nächste Überflüge

Höhenverlauf

Altitude vs Time

uPlot chart will show altitude changes over time

Zweizeiliger Elementsatz

1 47791U 21018E 25302.78729218 .00001771 00000-0 13773-3 0 9996
2 47791 53.0541 119.2621 0001527 96.1949 263.9214 15.06406463256873
Epoch: 29. Okt. 2025 • Age: 19 hours

Aktueller Status

Höhe 549.9 km
Geschwindigkeit 7.59 km/s
Subsatellitenpunkt 39.33°N, 99.21°W
Startdatum 11. März 2021
Alter 4.6 years
Typ internet

Technische Details

Klassifizierung Payload
Masse 260.00 kg
Trockenmasse 248.00 kg
Gesamtmasse 260.00 kg
Länge 0.20 m
Durchmesser 2.80 m
Spannweite 9.00 m
Form Box + pan
Hersteller SPXS
Bus-Typ Starlink
Phasenstatus In Orbit
Besitzer/Staat SPXS/US

Große Konstellationen

Loading constellations...